[[{"header":{"parameterUnit":"m.s-1","parameterCategory":2,"la1":30.2991,"la2":30.254,"lo1":-89.0895,"lo2":-89.0444,"dy":0.0017,"dx":0.0017,"nx":28,"ny":28,"refTime":"2025-03-18T03:00:00:Z","depth":"0","parameterNumber":2,"parameterNumberName":"U-component_of_CURRENTS"},"data":[0,0,0,0,0,0,0,0,0,0,0,0,0,0,0,0,0,0,0,0,0,0,0,0,0,0,0,0,0,0,0,0,0,0,0,0,0,0,0,0,0,0,0,0,0,0,0,0,0,0,0,0,0,0,0,0,0,0,-0.2269,-0.227,0,-0.2304,-0.2305,-0.2305,-0.2277,-0.2276,-0.2275,-0.2274,-0.2261,-0.2262,-0.2263,0,0,0,0,0,0,0,0,0,0,0,0,0,-0.2225,-0.2226,-0.2269,-0.227,-0.227,-0.2304,-0.2305,-0.2305,-0.2277,-0.2276,-0.2274,-0.2273,-0.2261,-0.2262,-0.2263,0,0,0,0,0,0,0,0,0,0,0,0,0,-0.225,-0.2226,-0.2269,-0.226,-0.226,-0.2304,-0.2305,-0.2305,-0.2278,-0.2276,-0.2274,-0.2272,-0.2261,-0.2262,-0.2263,-0.2305,0,0,-0.2267,-0.2267,0,0,0,0,0,0,0,0,-0.2249,-0.2252,-0.2261,-0.2261,-0.2261,-0.2285,-0.2284,-0.2303,-0.2278,-0.2271,-0.2274,-0.2272,-0.2266,-0.2267,-0.2278,-0.2305,-0.2304,-0.2267,-0.2267,-0.2268,-0.2268,0,0,0,0,0,0,0,-0.2247,-0.225,-0.2283,-0.2262,-0.2262,-0.2271,-0.2272,-0.2288,-0.2277,-0.2271,-0.2269,-0.2274,-0.2265,-0.2277,-0.2277,-0.2304,-0.2267,-0.2268,-0.2268,-0.2269,-0.2348,-0.2349,0,0,0,0,0,0,-0.2243,-0.2249,-0.2282,-0.2284,-0.225,-0.2273,-0.2274,-0.2279,-0.2278,-0.2276,-0.2276,-0.2273,-0.2276,-0.2276,-0.2277,-0.2307,-0.2268,-0.2269,-0.227,-0.2347,-0.2348,-0.235,0,0,0,0,0,0,-0.2242,-0.2245,-0.228,-0.2267,-0.2272,-0.2275,-0.2281,-0.228,-0.2281,-0.2282,-0.2279,-0.2275,-0.2274,-0.2275,-0.2299,-0.2307,-0.227,-0.2271,-0.2345,-0.2347,-0.2349,-0.238,0,0,0,0,0,0,-0.224,-0.2245,-0.2244,-0.2267,-0.2273,-0.2307,-0.2282,-0.2282,-0.2288,-0.2284,-0.2281,-0.2279,-0.2273,-0.2298,-0.2301,-0.2308,-0.2271,-0.2343,-0.2346,-0.2348,-0.2378,-0.2383,-0.2388,0,0,0,0,0,-0.2239,-0.2254,-0.2244,-0.2248,-0.2272,-0.2308,-0.2312,-0.2308,-0.2289,-0.23,-0.2303,-0.2278,-0.2316,-0.2301,-0.2303,-0.2311,-0.2342,-0.2345,-0.2348,-0.2375,-0.2382,-0.2388,0,0,0,0,0,0,-0.2236,-0.2253,-0.2242,-0.2261,-0.2279,-0.2303,-0.2313,-0.231,-0.2323,-0.2314,-0.2305,-0.2305,-0.2326,-0.2324,-0.2307,-0.2343,-0.2322,-0.2326,-0.2341,-0.2348,-0.2353,-0.2346,-0.2272,0,0,0,0,0,-0.2235,-0.225,-0.2265,-0.2282,-0.2288,-0.2298,-0.2309,-0.231,-0.2326,-0.2328,-0.2327,-0.2332,-0.2347,-0.235,-0.2363,-0.239,-0.2357,-0.2395,-0.24,-0.2405,-0.2402,-0.2399,-0.2403,-0.236,-0.236,-0.236,0,0,-0.2246,-0.2251,-0.2264,-0.2282,-0.2292,-0.2315,-0.23,-0.2323,-0.2338,-0.2327,-0.2345,-0.2352,-0.236,-0.2387,-0.2395,-0.2382,-0.2391,-0.2409,-0.2412,-0.2407,-0.2403,-0.2407,-0.241,-0.2363,-0.2362,-0.2362,0,0,-0.2291,-0.2272,-0.2307,-0.2312,-0.2327,-0.233,-0.2335,-0.2356,-0.2356,-0.2387,-0.2378,-0.2393,-0.2416,-0.2422,-0.2428,-0.2474,-0.2422,-0.2475,-0.2493,-0.2491,-0.2493,-0.2496,-0.2413,-0.2407,-0.2475,-0.2475,-0.2475,0,-0.2304,-0.2323,-0.2325,-0.2347,-0.2341,-0.2335,-0.2357,-0.2371,-0.2398,-0.2408,-0.2394,-0.2434,-0.2432,-0.2465,-0.2476,-0.2482,-0.2449,-0.2465,-0.2495,-0.2497,-0.2499,-0.2414,-0.2408,-0.2477,-0.2477,-0.2477,-0.2477,0,-0.236,-0.237,-0.2385,-0.2399,-0.2407,-0.2415,-0.2424,-0.244,-0.2432,-0.2445,-0.2474,-0.2481,-0.2503,-0.2504,-0.2502,-0.2521,-0.2479,-0.2502,-0.2473,-0.2505,-0.2413,-0.2406,-0.248,-0.2479,-0.2479,-0.2478,0,0,-0.2375,-0.2421,-0.2412,-0.2425,-0.2414,-0.2433,-0.2454,-0.2475,-0.2497,-0.251,-0.2534,-0.2555,-0.2553,-0.256,-0.2558,-0.255,-0.2513,-0.2531,-0.253,-0.2435,-0.2447,-0.2326,-0.2306,-0.2548,-0.2548,-0.2549,-0.2359,0,-0.24,-0.2454,-0.2455,-0.2484,-0.2501,-0.2486,-0.2511,-0.2532,-0.2539,-0.2566,-0.2567,-0.2591,-0.2577,-0.2585,-0.258,-0.2537,-0.2504,-0.2558,-0.2442,-0.2436,-0.2317,-0.2299,-0.2215,-0.2033,-0.2352,-0.2351,-0.235,0,-0.2403,-0.2446,-0.2483,-0.2521,-0.2525,-0.2542,-0.2552,-0.2582,-0.2616,-0.2627,-0.2646,-0.2643,-0.2628,-0.2622,-0.2541,-0.2577,-0.2514,-0.247,-0.2462,-0.2337,-0.2305,-0.2065,-0.2008,-0.1999,-0.2338,-0.2339,-0.234,0,-0.2364,-0.2433,-0.2457,-0.246,-0.2522,-0.2538,-0.2566,-0.26,-0.2581,-0.2663,-0.2629,-0.2668,-0.261,-0.2597,-0.248,-0.2521,-0.2363,-0.2412,-0.2232,-0.2219,-0.2116,-0.2095,-0.2029,-0.236,-0.236,-0.2361,-0.2361,0,-0.2324,-0.2337,-0.2453,-0.2456,-0.2471,-0.2548,-0.2546,-0.2589,-0.2609,-0.2542,-0.2649,-0.2567,-0.2601,-0.2502,-0.2469,-0.2284,-0.2345,-0.2208,-0.2172,-0.2119,-0.2101,-0.2064,-0.2106,-0.2354,-0.2355,-0.2357,-0.2358,0,-0.2208,-0.2295,-0.2312,-0.2413,-0.2436,-0.2436,-0.2446,-0.241,-0.2512,-0.2416,-0.2418,-0.243,-0.2332,-0.2314,-0.2238,-0.2187,-0.2049,-0.2022,-0.1911,-0.1866,-0.1719,-0.1766,-0.1655,-0.161,-0.1805,-0.1801,-0.1798,0,-0.2141,-0.2156,-0.222,-0.2184,-0.2204,-0.2236,-0.2185,-0.2305,-0.2242,-0.2275,-0.2165,-0.2127,-0.2026,-0.1893,-0.1857,-0.177,-0.1833,-0.1628,-0.1714,-0.1669,-0.1697,-0.1759,-0.1736,-0.1563,-0.1558,-0.1554,-0.1551,0,-0.1988,-0.2003,-0.1999,-0.1948,-0.1899,-0.1854,-0.1835,-0.1775,-0.1864,-0.1806,-0.1723,-0.1702,-0.1654,-0.1563,-0.1507,-0.1463,-0.1607,-0.1537,-0.155,-0.1538,-0.1544,-0.1495,-0.1682,-0.1514,-0.1518,-0.1521,-0.1522,-0.1524,-0.1814,-0.1749,-0.1738,-0.1657,-0.1587,-0.1466,-0.1394,-0.135,-0.1252,-0.1171,-0.1269,-0.1208,-0.1346,-0.1281,-0.1232,-0.117,-0.128,-0.1178,-0.1238,-0.1302,-0.1277,-0.1334,-0.1106,-0.1107,-0.1108,-0.1109,-0.111,0,-0.1608,-0.1546,-0.1443,-0.1359,-0.1203,-0.1255,-0.1124,-0.1044,-0.0877,-0.0802,-0.0764,-0.0815,-0.0824,-0.0952,-0.0964,-0.0917,-0.0953,-0.0923,-0.1033,-0.1025,-0.1103,-0.1112,-0.0804,-0.0804,-0.0804,-0.0805,-0.0805,-0.0805,-0.1492,-0.1342,-0.1296,-0.1036,-0.0954,-0.0765,-0.0672,-0.0554,-0.0504,-0.0343,-0.0317,-0.0376,-0.0622,-0.0867,-0.0882,-0.0841,-0.0879,-0.0838,-0.0888,-0.0999,-0.103,-0.106,-0.1078,-0.0768,-0.0768,-0.0776,-0.0776,-0.0776]},{"header":{"parameterUnit":"m.s-1","parameterCategory":2,"la1":30.2991,"la2":30.254,"lo1":-89.0895,"lo2":-89.0444,"dy":0.0017,"dx":0.0017,"nx":28,"ny":28,"refTime":"2025-03-18T03:00:00:Z","depth":"0","parameterNumber":3,"parameterNumberName":"V-component_of_CURRENTS"},"data":[0,0,0,0,0,0,0,0,0,0,0,0,0,0,0,0,0,0,0,0,0,0,0,0,0,0,0,0,0,0,0,0,0,0,0,0,0,0,0,0,0,0,0,0,0,0,0,0,0,0,0,0,0,0,0,0,0,0,-0.025,-0.0249,0,-0.0199,-0.0198,-0.0197,-0.0136,-0.0135,-0.0135,-0.0134,-0.0015,-0.0012,-0.001,0,0,0,0,0,0,0,0,0,0,0,0,0,-0.0245,-0.0246,-0.025,-0.0249,-0.0249,-0.0199,-0.0198,-0.0197,-0.0136,-0.0135,-0.0134,-0.0134,-0.0016,-0.0013,-0.001,0,0,0,0,0,0,0,0,0,0,0,0,0,-0.0224,-0.0246,-0.025,-0.0214,-0.021,-0.0199,-0.0198,-0.0197,-0.0136,-0.0135,-0.0134,-0.0133,-0.0017,-0.0013,-0.0009,-0.001,0,0,0.0002,0.0003,0,0,0,0,0,0,0,0,-0.0226,-0.0224,-0.022,-0.0216,-0.0212,-0.0174,-0.0153,-0.0131,-0.0137,-0.0163,-0.0134,-0.0133,-0.0064,-0.0056,-0.0048,-0.0004,0.0001,0.0002,0.0004,0.0006,0.0007,0,0,0,0,0,0,0,-0.0227,-0.0226,-0.0228,-0.0219,-0.0215,-0.0183,-0.0179,-0.0148,-0.0118,-0.016,-0.0156,-0.0154,-0.0061,-0.0051,-0.0044,0.0003,0.0002,0.0005,0.0008,0.0009,0.0081,0.0081,0,0,0,0,0,0,-0.0242,-0.0228,-0.0229,-0.0226,-0.0218,-0.0185,-0.018,-0.0186,-0.0119,-0.0109,-0.0155,-0.0151,-0.0058,-0.0048,-0.004,-0.0007,0.0006,0.0009,0.0012,0.0081,0.0081,0.008,0,0,0,0,0,0,-0.0242,-0.0243,-0.0231,-0.0227,-0.0223,-0.0187,-0.0193,-0.0186,-0.0173,-0.0116,-0.0104,-0.0149,-0.0057,-0.0045,-0.0013,-0.0002,0.0011,0.0014,0.0081,0.0081,0.0081,0.0041,0,0,0,0,0,0,-0.0242,-0.0243,-0.0251,-0.0228,-0.0224,-0.0231,-0.0194,-0.0186,-0.0174,-0.0168,-0.0108,-0.0096,-0.0055,-0.0019,-0.0009,0.0003,0.0017,0.0082,0.0081,0.0081,0.0043,0.0039,0.0036,0,0,0,0,0,-0.0242,-0.0264,-0.0252,-0.0252,-0.0237,-0.0232,-0.0227,-0.0195,-0.0175,-0.0177,-0.0134,-0.0097,-0.0015,-0.0017,-0.0005,0.0009,0.0082,0.0081,0.0081,0.0044,0.004,0.0036,0,0,0,0,0,0,-0.0267,-0.0259,-0.0246,-0.0264,-0.0251,-0.0223,-0.0224,-0.0202,-0.0171,-0.0163,-0.0104,-0.009,-0.0059,-0.0027,-0.003,0.0026,0.0041,0.0042,0.0009,0.0005,0.0002,0.001,0.002,0,0,0,0,0,-0.0278,-0.0287,-0.0274,-0.0285,-0.0284,-0.0255,-0.0248,-0.0229,-0.02,-0.0185,-0.0142,-0.0096,-0.0055,-0.0027,0.0006,0.0035,0.0105,0.0051,0.0047,0.0045,0.0058,0.018,0.019,0.0078,0.0078,0.0078,0,0,-0.0284,-0.0286,-0.0286,-0.029,-0.0276,-0.0278,-0.0247,-0.0246,-0.0233,-0.0178,-0.0148,-0.0111,-0.0053,-0.002,-0.0002,0.0012,0.0109,0.0044,0.0041,0.0056,0.018,0.0192,0.0202,0.0078,0.0078,0.0078,0,0,-0.0322,-0.0311,-0.0339,-0.0334,-0.0329,-0.0301,-0.0304,-0.0282,-0.0258,-0.0237,-0.0186,-0.0139,-0.0093,-0.0033,-0.0,-0.0002,0.0081,0.0,0.0004,0.0121,0.0133,0.0143,0.0232,0.0251,0.0008,0.0008,0.0008,0,-0.0331,-0.0364,-0.0344,-0.0373,-0.0357,-0.0315,-0.0326,-0.0302,-0.0267,-0.0235,-0.0236,-0.0128,-0.0091,-0.0008,-0.0015,-0.0004,0.0066,0.0014,0.0121,0.0133,0.0145,0.0233,0.0255,0.0006,0.0006,0.0006,0.0006,0,-0.0382,-0.0412,-0.0427,-0.0434,-0.0413,-0.0418,-0.0375,-0.0353,-0.0317,-0.0276,-0.0206,-0.0149,-0.0072,-0.0062,-0.0043,0.0057,0.008,0.0098,0.0135,0.0154,0.0245,0.0268,0.0003,0.0004,0.0004,0.0005,0,0,-0.0386,-0.0453,-0.0456,-0.0468,-0.0442,-0.0425,-0.0398,-0.0345,-0.0291,-0.0263,-0.0179,-0.0132,-0.0082,-0.0041,0.0006,0.0095,0.0217,0.0123,0.013,0.0219,0.0469,0.045,0.0474,0.0262,0.0266,0.027,0.0494,0,-0.0427,-0.051,-0.0503,-0.0519,-0.0542,-0.0476,-0.0431,-0.0369,-0.0304,-0.0216,-0.014,-0.005,-0.0076,-0.0016,0.0059,0.019,0.0279,0.0154,0.0431,0.0439,0.0428,0.0501,0.0479,0.0675,0.0517,0.0521,0.0524,0,-0.0473,-0.0516,-0.0577,-0.0555,-0.0546,-0.0523,-0.0405,-0.0361,-0.0232,-0.0175,-0.0085,-0.0011,0.0115,0.01,0.0321,0.0245,0.0347,0.0436,0.0448,0.0466,0.0464,0.0634,0.0725,0.084,0.0561,0.0558,0.0555,0,-0.0496,-0.0547,-0.0593,-0.0594,-0.0567,-0.0535,-0.047,-0.0349,-0.0243,-0.0125,-0.0022,0.0093,0.0205,0.0336,0.0464,0.0425,0.0718,0.0699,0.0778,0.0777,0.0832,0.0829,0.1078,0.0875,0.0874,0.0874,0.0873,0,-0.0549,-0.0575,-0.061,-0.0637,-0.0586,-0.0547,-0.0419,-0.0368,-0.0189,-0.0026,0.0013,0.0151,0.0276,0.0438,0.0529,0.0721,0.0776,0.0806,0.0851,0.0811,0.0804,0.0962,0.0989,0.0882,0.088,0.0879,0.0877,0,-0.0588,-0.0639,-0.0673,-0.0657,-0.0622,-0.0577,-0.0363,-0.025,-0.0127,0.0092,0.0149,0.0269,0.0426,0.0546,0.0775,0.0829,0.1073,0.1054,0.0971,0.1,0.1142,0.1163,0.1441,0.1526,0.1196,0.1197,0.1198,0,-0.0623,-0.0668,-0.0673,-0.0648,-0.064,-0.0525,-0.0405,-0.0237,-0.0085,0.017,0.0278,0.0445,0.0549,0.0812,0.0917,0.1088,0.1161,0.12,0.1112,0.1179,0.1239,0.1239,0.1291,0.1174,0.1175,0.1175,0.1175,0,-0.0643,-0.0663,-0.0683,-0.0647,-0.0565,-0.0424,-0.0251,-0.0119,0.0114,0.0297,0.0509,0.0596,0.0759,0.0876,0.1025,0.1117,0.1263,0.1215,0.1347,0.1297,0.1262,0.1353,0.0972,0.118,0.118,0.1179,0.1179,0.1179,-0.0615,-0.0627,-0.0649,-0.0598,-0.0509,-0.0358,-0.0226,-0.0026,0.0213,0.0499,0.062,0.0788,0.092,0.1066,0.1168,0.1338,0.1321,0.1409,0.1449,0.146,0.1487,0.1086,0.129,0.1291,0.1291,0.1291,0.1291,0,-0.0554,-0.0575,-0.0559,-0.0506,-0.0409,-0.0359,-0.0129,0.002,0.0253,0.0519,0.0742,0.1031,0.1137,0.1257,0.1439,0.1577,0.1604,0.1663,0.1688,0.1747,0.1468,0.1408,0.1573,0.1573,0.1572,0.1572,0.1572,0.1572,-0.0518,-0.0512,-0.0524,-0.041,-0.0364,-0.0192,-0.0081,0.0103,0.0296,0.0656,0.0902,0.1092,0.1294,0.1597,0.1812,0.1839,0.1999,0.1952,0.2084,0.1887,0.1867,0.1847,0.1802,0.2046,0.2047,0.234,0.2343,0.2345]}],[{"header":{"parameterUnit":"m.s-1","parameterCategory":2,"la1":30.2991,"la2":30.254,"lo1":-89.0895,"lo2":-89.0444,"dy":0.0017,"dx":0.0017,"nx":28,"ny":28,"refTime":"2025-03-18T03:00:00:Z","depth":"2","parameterNumber":2,"parameterNumberName":"U-component_of_CURRENTS"},"data":[0,0,0,0,0,0,0,0,0,0,0,0,0,0,0,0,0,0,0,0,0,0,0,0,0,0,0,0,0,0,0,0,0,0,0,0,0,0,0,0,0,0,0,0,0,0,0,0,0,0,0,0,0,0,0,0,0,0,-0.2199,-0.2199,0,-0.2224,-0.2224,-0.2225,-0.2198,-0.2197,-0.2196,-0.2195,-0.2166,-0.2166,-0.2166,0,0,0,0,0,0,0,0,0,0,0,0,0,-0.2141,-0.2142,-0.2199,-0.2199,-0.22,-0.2224,-0.2224,-0.2225,-0.2198,-0.2197,-0.2196,-0.2195,-0.2166,-0.2166,-0.2166,0,0,0,0,0,0,0,0,0,0,0,0,0,-0.2165,-0.2142,-0.2199,-0.219,-0.219,-0.2224,-0.2224,-0.2225,-0.2198,-0.2197,-0.2195,-0.2194,-0.2166,-0.2166,-0.2166,-0.2195,0,0,-0.2167,-0.2167,0,0,0,0,0,0,0,0,-0.2163,-0.2167,-0.2191,-0.2191,-0.2191,-0.2207,-0.2193,-0.2212,-0.2199,-0.2194,-0.2195,-0.2193,-0.2177,-0.2176,-0.2183,-0.2193,-0.2192,-0.2167,-0.2167,-0.2167,-0.2167,0,0,0,0,0,0,0,-0.2162,-0.2166,-0.2208,-0.2192,-0.2191,-0.219,-0.2191,-0.2197,-0.2191,-0.2194,-0.2193,-0.2198,-0.2176,-0.2183,-0.2182,-0.2192,-0.2167,-0.2167,-0.2167,-0.2167,-0.2215,-0.2216,0,0,0,0,0,0,-0.2162,-0.2164,-0.2207,-0.2209,-0.2175,-0.2192,-0.2194,-0.2202,-0.2192,-0.219,-0.2199,-0.2196,-0.2183,-0.2182,-0.2181,-0.2205,-0.2167,-0.2167,-0.2167,-0.2214,-0.2215,-0.2217,0,0,0,0,0,0,-0.2161,-0.2166,-0.2206,-0.2187,-0.2192,-0.2194,-0.2205,-0.2204,-0.2207,-0.2196,-0.2192,-0.2202,-0.2182,-0.218,-0.2191,-0.2204,-0.2167,-0.2167,-0.2213,-0.2214,-0.2216,-0.226,0,0,0,0,0,0,-0.2159,-0.2165,-0.217,-0.2188,-0.2194,-0.2231,-0.2206,-0.2205,-0.2213,-0.2209,-0.2198,-0.2194,-0.2181,-0.2191,-0.2191,-0.2203,-0.2167,-0.2211,-0.2213,-0.2215,-0.2257,-0.2263,-0.2268,0,0,0,0,0,-0.2157,-0.2172,-0.217,-0.2175,-0.22,-0.2232,-0.2235,-0.223,-0.2214,-0.2225,-0.2217,-0.2194,-0.2205,-0.2192,-0.2192,-0.2205,-0.221,-0.2213,-0.2215,-0.2254,-0.2262,-0.2268,0,0,0,0,0,0,-0.2147,-0.2171,-0.2169,-0.2189,-0.221,-0.2228,-0.2237,-0.2235,-0.2239,-0.2231,-0.2213,-0.221,-0.2224,-0.2214,-0.2201,-0.2227,-0.2203,-0.2205,-0.2232,-0.2239,-0.2245,-0.2238,-0.2167,0,0,0,0,0,-0.2149,-0.2162,-0.2189,-0.2202,-0.2216,-0.2227,-0.2237,-0.2239,-0.2247,-0.2247,-0.224,-0.2234,-0.2239,-0.2237,-0.224,-0.2258,-0.2233,-0.2265,-0.2271,-0.2276,-0.2272,-0.227,-0.2274,-0.2226,-0.2226,-0.2226,0,0,-0.2144,-0.2161,-0.2166,-0.22,-0.2214,-0.2244,-0.2229,-0.2252,-0.2268,-0.2244,-0.2258,-0.2256,-0.2249,-0.2267,-0.2272,-0.2257,-0.2274,-0.2279,-0.2283,-0.2276,-0.2273,-0.2277,-0.2281,-0.2227,-0.2227,-0.2227,0,0,-0.2147,-0.2164,-0.2177,-0.2211,-0.2242,-0.2253,-0.2262,-0.2287,-0.2287,-0.231,-0.2294,-0.2301,-0.2309,-0.2307,-0.2306,-0.2346,-0.2306,-0.2347,-0.2367,-0.2366,-0.2369,-0.2372,-0.2329,-0.2328,-0.2347,-0.2347,-0.2347,0,-0.2139,-0.2168,-0.2186,-0.2224,-0.2251,-0.226,-0.2291,-0.2304,-0.2325,-0.2329,-0.2318,-0.2333,-0.2327,-0.2343,-0.2356,-0.2358,-0.2336,-0.234,-0.2372,-0.2374,-0.2376,-0.2331,-0.2329,-0.235,-0.235,-0.2349,-0.2349,0,-0.2158,-0.2195,-0.2213,-0.2257,-0.2287,-0.2323,-0.235,-0.2366,-0.2365,-0.2372,-0.2388,-0.2387,-0.239,-0.2395,-0.2386,-0.2403,-0.2375,-0.238,-0.2351,-0.2383,-0.2334,-0.2331,-0.2353,-0.2352,-0.2352,-0.2351,0,0,-0.2102,-0.2205,-0.2211,-0.2254,-0.2315,-0.2344,-0.2373,-0.2402,-0.2414,-0.2428,-0.244,-0.2452,-0.2442,-0.2441,-0.2433,-0.2432,-0.2424,-0.2413,-0.2412,-0.2363,-0.2389,-0.2272,-0.2257,-0.2438,-0.2438,-0.2438,-0.2341,0,-0.2108,-0.2186,-0.2232,-0.2305,-0.2349,-0.2391,-0.242,-0.2447,-0.2453,-0.2469,-0.2465,-0.2479,-0.2462,-0.2466,-0.2462,-0.2445,-0.2422,-0.2448,-0.2371,-0.2368,-0.2254,-0.2252,-0.2093,-0.1986,-0.2338,-0.2338,-0.2337,0,-0.2103,-0.2161,-0.2235,-0.2342,-0.2363,-0.2404,-0.245,-0.2484,-0.2505,-0.2513,-0.2518,-0.2512,-0.2515,-0.2498,-0.246,-0.2478,-0.243,-0.2406,-0.2402,-0.2274,-0.2245,-0.2015,-0.1967,-0.2332,-0.2332,-0.2333,-0.2333,0,-0.2047,-0.2164,-0.2224,-0.2267,-0.2376,-0.2407,-0.2452,-0.2486,-0.2516,-0.2539,-0.2541,-0.2547,-0.2527,-0.2509,-0.2435,-0.246,-0.237,-0.24,-0.2238,-0.2227,-0.2066,-0.2041,-0.2356,-0.2356,-0.2356,-0.2356,-0.2357,0,-0.204,-0.2088,-0.221,-0.225,-0.2306,-0.2394,-0.2454,-0.2475,-0.2533,-0.2539,-0.2557,-0.2525,-0.2529,-0.2469,-0.2434,-0.2299,-0.236,-0.2224,-0.2196,-0.2074,-0.2052,-0.2339,-0.2339,-0.2353,-0.2353,-0.2354,-0.2355,0,-0.1964,-0.2056,-0.2123,-0.2243,-0.2285,-0.2317,-0.2457,-0.2504,-0.2541,-0.2542,-0.2549,-0.2513,-0.2415,-0.2379,-0.2312,-0.2256,-0.218,-0.2108,-0.1937,-0.1891,-0.2042,-0.2046,-0.1948,-0.1943,-0.1939,-0.1936,-0.1933,0,-0.1931,-0.1961,-0.2086,-0.2116,-0.2172,-0.2271,-0.2345,-0.2475,-0.2517,-0.2498,-0.2473,-0.2386,-0.2262,-0.2112,-0.2006,-0.1896,-0.2007,-0.1708,-0.1735,-0.2018,-0.2002,-0.2012,-0.202,-0.1531,-0.1525,-0.152,-0.1516,0,-0.1837,-0.1878,-0.1929,-0.1996,-0.2081,-0.2191,-0.2294,-0.2357,-0.2462,-0.2467,-0.2361,-0.2256,-0.2017,-0.1794,-0.1644,-0.1579,-0.173,-0.1603,-0.1937,-0.1662,-0.1617,-0.1605,-0.1628,-0.1473,-0.1477,-0.148,-0.1483,-0.1484,-0.1732,-0.1734,-0.1796,-0.1847,-0.1946,-0.2046,-0.2086,-0.2193,-0.2259,-0.2154,-0.2199,-0.1941,-0.1789,-0.1436,-0.1329,-0.124,-0.1373,-0.1352,-0.1371,-0.1393,-0.1366,-0.1317,-0.1108,-0.111,-0.1112,-0.1113,-0.1115,0,-0.1589,-0.1614,-0.1646,-0.1689,-0.1712,-0.1868,-0.1989,-0.1949,-0.1944,-0.1892,-0.1787,-0.1514,-0.1311,-0.1149,-0.0919,-0.0883,-0.0913,-0.0873,-0.0927,-0.0968,-0.1006,-0.0963,-0.0596,-0.0595,-0.0594,-0.0592,0,0,-0.1515,-0.1485,-0.1509,-0.1448,-0.1504,-0.1515,-0.1581,-0.1513,-0.1436,-0.1316,-0.1199,-0.1205,-0.1109,-0.0873,-0.0809,-0.0652,-0.0812,-0.0616,-0.1027,-0.1131,-0.1167,-0.1268,-0.1245,0,0,0,0,0]},{"header":{"parameterUnit":"m.s-1","parameterCategory":2,"la1":30.2991,"la2":30.254,"lo1":-89.0895,"lo2":-89.0444,"dy":0.0017,"dx":0.0017,"nx":28,"ny":28,"refTime":"2025-03-18T03:00:00:Z","depth":"2","parameterNumber":3,"parameterNumberName":"V-component_of_CURRENTS"},"data":[0,0,0,0,0,0,0,0,0,0,0,0,0,0,0,0,0,0,0,0,0,0,0,0,0,0,0,0,0,0,0,0,0,0,0,0,0,0,0,0,0,0,0,0,0,0,0,0,0,0,0,0,0,0,0,0,0,0,-0.0281,-0.028,0,-0.0214,-0.0213,-0.0212,-0.0163,-0.0162,-0.0162,-0.0162,-0.0052,-0.0049,-0.0047,0,0,0,0,0,0,0,0,0,0,0,0,0,-0.0312,-0.0312,-0.0281,-0.028,-0.0279,-0.0214,-0.0213,-0.0212,-0.0163,-0.0162,-0.0162,-0.0162,-0.0053,-0.005,-0.0046,0,0,0,0,0,0,0,0,0,0,0,0,0,-0.0276,-0.0312,-0.0281,-0.0248,-0.0244,-0.0214,-0.0213,-0.0212,-0.0163,-0.0162,-0.0162,-0.0161,-0.0054,-0.005,-0.0046,-0.0031,0,0,-0.0034,-0.0032,0,0,0,0,0,0,0,0,-0.0278,-0.0275,-0.0253,-0.025,-0.0246,-0.0197,-0.0184,-0.0149,-0.0163,-0.0192,-0.0162,-0.0161,-0.0098,-0.009,-0.0077,-0.0026,-0.0021,-0.0034,-0.0031,-0.0029,-0.0028,0,0,0,0,0,0,0,-0.0281,-0.0277,-0.0253,-0.0253,-0.0248,-0.0218,-0.0213,-0.0177,-0.0146,-0.019,-0.0186,-0.0181,-0.0095,-0.0081,-0.0074,-0.0019,-0.0034,-0.003,-0.0028,-0.0026,0.0071,0.0071,0,0,0,0,0,0,-0.0295,-0.028,-0.0255,-0.0251,-0.0263,-0.0218,-0.0212,-0.0212,-0.0148,-0.0138,-0.0182,-0.0179,-0.0088,-0.0079,-0.007,-0.0041,-0.0029,-0.0026,-0.0023,0.0071,0.0071,0.0071,0,0,0,0,0,0,-0.0296,-0.0294,-0.0258,-0.0264,-0.0258,-0.0219,-0.0219,-0.0211,-0.0198,-0.0142,-0.0132,-0.0177,-0.0087,-0.0076,-0.0039,-0.0036,-0.0024,-0.002,0.007,0.0071,0.0071,0.0013,0,0,0,0,0,0,-0.0298,-0.0295,-0.03,-0.0266,-0.0258,-0.0247,-0.0219,-0.021,-0.0196,-0.0192,-0.0134,-0.0124,-0.0086,-0.0045,-0.0035,-0.0031,-0.0017,0.007,0.007,0.0071,0.0015,0.0012,0.0009,0,0,0,0,0,-0.0299,-0.0313,-0.0301,-0.0298,-0.0267,-0.0247,-0.0241,-0.021,-0.0197,-0.0195,-0.0153,-0.0126,-0.0035,-0.0042,-0.003,-0.0025,0.007,0.007,0.0071,0.0016,0.0012,0.0009,0,0,0,0,0,0,-0.0331,-0.0308,-0.0294,-0.0301,-0.0278,-0.024,-0.0237,-0.0216,-0.0183,-0.0179,-0.0124,-0.0111,-0.0079,-0.0044,-0.0052,0.0005,0.0023,0.0025,-0.0023,-0.0026,-0.0029,-0.0038,-0.0014,0,0,0,0,0,-0.0341,-0.0346,-0.0315,-0.0321,-0.0312,-0.0275,-0.0264,-0.0244,-0.0211,-0.0196,-0.0154,-0.0108,-0.0067,-0.0042,-0.0004,0.0027,0.0075,0.004,0.0036,0.0033,0.0035,0.0105,0.0109,0.0072,0.0072,0.0072,0,0,-0.0355,-0.0345,-0.0347,-0.0328,-0.0308,-0.0297,-0.0267,-0.0257,-0.0244,-0.0189,-0.016,-0.0121,-0.0063,-0.0029,-0.0011,0.0002,0.0069,0.0034,0.0031,0.0034,0.0106,0.011,0.0113,0.0073,0.0073,0.0073,0,0,-0.0393,-0.0377,-0.0393,-0.0373,-0.035,-0.0323,-0.0323,-0.0286,-0.0265,-0.0237,-0.0192,-0.0151,-0.0093,-0.0046,-0.0016,-0.0012,0.0046,-0.0001,-0.0017,0.005,0.0054,0.0058,0.0123,0.0133,0.0003,0.0003,0.0003,0,-0.0414,-0.0423,-0.0394,-0.0398,-0.0381,-0.0337,-0.0339,-0.0312,-0.0267,-0.0248,-0.0237,-0.0144,-0.0099,-0.0042,-0.004,-0.0018,0.0028,-0.0011,0.0046,0.0051,0.0055,0.0121,0.0133,-0.0,0.0,0.0,0.0001,0,-0.046,-0.0457,-0.0463,-0.0449,-0.0426,-0.0423,-0.0376,-0.0357,-0.0326,-0.0292,-0.0243,-0.018,-0.0121,-0.0101,-0.0068,-0.0012,0.0013,0.0028,0.0052,0.0056,0.0125,0.0138,-0.0004,-0.0003,-0.0002,-0.0002,0,0,-0.0538,-0.0505,-0.0507,-0.0499,-0.0451,-0.0442,-0.0413,-0.0374,-0.0358,-0.0309,-0.0277,-0.0206,-0.0169,-0.0132,-0.0082,-0.0022,0.0051,0.0013,0.0018,0.0071,0.0204,0.0176,0.0189,0.0076,0.0078,0.0079,0.0238,0,-0.0585,-0.0612,-0.0563,-0.0562,-0.0568,-0.0495,-0.0468,-0.0423,-0.038,-0.0338,-0.0265,-0.0213,-0.018,-0.0147,-0.0087,0.0025,0.0083,0.0007,0.0198,0.0204,0.0174,0.0202,0.017,0.0305,0.0252,0.0254,0.0255,0,-0.0649,-0.0658,-0.0681,-0.0621,-0.0612,-0.0597,-0.0543,-0.0502,-0.0423,-0.0387,-0.0323,-0.0258,-0.0154,-0.0137,0.0049,-0.0,0.0091,0.017,0.0179,0.0182,0.0201,0.0294,0.0331,0.0278,0.0276,0.0275,0.0273,0,-0.0749,-0.0725,-0.075,-0.0736,-0.0676,-0.0662,-0.061,-0.0536,-0.0487,-0.0409,-0.0366,-0.0256,-0.0174,-0.0052,0.011,0.0091,0.0311,0.0309,0.0368,0.0368,0.0394,0.0391,0.0427,0.0427,0.0426,0.0426,0.0426,0,-0.0826,-0.0833,-0.0807,-0.0826,-0.0849,-0.0743,-0.0736,-0.0674,-0.0556,-0.0473,-0.0393,-0.0314,-0.0146,-0.0002,0.0119,0.0292,0.0327,0.0375,0.0409,0.0371,0.0365,0.038,0.0373,0.0432,0.0431,0.0429,0.0428,0,-0.0926,-0.0909,-0.094,-0.0908,-0.0909,-0.0919,-0.0819,-0.0794,-0.0656,-0.0541,-0.0498,-0.0325,-0.0144,0.0015,0.0237,0.0316,0.0475,0.0521,0.0458,0.048,0.0484,0.0471,0.0607,0.0607,0.0608,0.0608,0.0608,0,-0.0974,-0.1011,-0.1044,-0.1083,-0.1076,-0.1069,-0.1064,-0.0906,-0.0816,-0.0534,-0.0464,-0.0269,-0.0143,0.0135,0.0303,0.0498,0.0504,0.0578,0.052,0.0483,0.0504,0.0491,0.0479,0.0547,0.0546,0.0546,0.0546,0,-0.1063,-0.1084,-0.112,-0.1217,-0.1248,-0.1262,-0.1182,-0.1138,-0.0873,-0.0727,-0.0447,-0.0312,-0.0028,0.0153,0.0352,0.0462,0.0536,0.0576,0.06,0.0477,0.0431,0.0449,0.0439,0.0544,0.0544,0.0544,0.0544,0.0544,-0.1126,-0.1186,-0.1242,-0.132,-0.1375,-0.1401,-0.1387,-0.1261,-0.1118,-0.0816,-0.0558,-0.0304,-0.0058,0.0178,0.0369,0.0539,0.0526,0.0572,0.0572,0.0572,0.0507,0.0462,0.0569,0.0569,0.057,0.057,0.057,0,-0.1177,-0.1235,-0.1321,-0.1403,-0.1458,-0.1474,-0.1411,-0.133,-0.1186,-0.0915,-0.0637,-0.0303,-0.0117,0.0149,0.0408,0.0556,0.0558,0.0581,0.0561,0.0561,0.0562,0.0496,0.0556,0.0557,0.0557,0.0558,0,0,-0.1207,-0.1286,-0.1326,-0.1432,-0.1496,-0.1524,-0.1505,-0.1392,-0.1176,-0.0945,-0.0705,-0.047,-0.0095,0.0075,0.0276,0.0434,0.0455,0.0443,0.0435,0.0386,0.0385,0.0534,0.0429,0,0,0,0,0]}],[{"header":{"parameterUnit":"m.s-1","parameterCategory":2,"la1":30.2991,"la2":30.254,"lo1":-89.0895,"lo2":-89.0444,"dy":0.0017,"dx":0.0017,"nx":28,"ny":28,"refTime":"2025-03-18T03:00:00:Z","depth":"4","parameterNumber":2,"parameterNumberName":"U-component_of_CURRENTS"},"data":[0,0,0,0,0,0,0,0,0,0,0,0,0,0,0,0,0,0,0,0,0,0,0,0,0,0,0,0,0,0,0,0,0,0,0,0,0,0,0,0,0,0,0,0,0,0,0,0,0,0,0,0,0,0,0,0,0,0,-0.1684,-0.1685,0,-0.1724,-0.1724,-0.1724,-0.1742,-0.1742,-0.1742,-0.1743,-0.174,-0.174,-0.1739,0,0,0,0,0,0,0,0,0,0,0,0,0,-0.1575,-0.1577,-0.1684,-0.1685,-0.1685,-0.1724,-0.1724,-0.1724,-0.1742,-0.1742,-0.1742,-0.1743,-0.174,-0.174,-0.1739,0,0,0,0,0,0,0,0,0,0,0,0,0,-0.1617,-0.1578,-0.1684,-0.1701,-0.1703,-0.1724,-0.1724,-0.1724,-0.1742,-0.1742,-0.1743,-0.1743,-0.174,-0.174,-0.1739,-0.173,0,0,-0.1738,-0.1738,0,0,0,0,0,0,0,0,-0.1614,-0.162,-0.1698,-0.17,-0.1702,-0.1731,-0.1685,-0.1725,-0.1742,-0.1724,-0.1743,-0.1743,-0.1734,-0.1735,-0.1738,-0.173,-0.173,-0.1738,-0.1738,-0.1738,-0.1737,0,0,0,0,0,0,0,-0.1612,-0.1619,-0.1697,-0.1699,-0.1701,-0.169,-0.1697,-0.1692,-0.1724,-0.1726,-0.1728,-0.1737,-0.1735,-0.1738,-0.1738,-0.173,-0.1738,-0.1738,-0.1737,-0.1737,-0.1763,-0.1763,0,0,0,0,0,0,-0.1615,-0.1616,-0.1696,-0.1698,-0.1661,-0.1693,-0.17,-0.1719,-0.1725,-0.1728,-0.1736,-0.1737,-0.1739,-0.1738,-0.1738,-0.1787,-0.1738,-0.1737,-0.1737,-0.1762,-0.1763,-0.1764,0,0,0,0,0,0,-0.1613,-0.1622,-0.1694,-0.1659,-0.1668,-0.1695,-0.1716,-0.172,-0.1751,-0.1734,-0.1735,-0.1768,-0.1739,-0.1738,-0.1753,-0.1785,-0.1737,-0.1737,-0.1761,-0.1762,-0.1763,-0.1847,0,0,0,0,0,0,-0.161,-0.1621,-0.1648,-0.166,-0.1671,-0.1729,-0.1716,-0.172,-0.1756,-0.1758,-0.1761,-0.1759,-0.1739,-0.1754,-0.1753,-0.1783,-0.1736,-0.1759,-0.1761,-0.1763,-0.1843,-0.1851,-0.1858,0,0,0,0,0,-0.1606,-0.1636,-0.1649,-0.1659,-0.1703,-0.1731,-0.1735,-0.1751,-0.1757,-0.1779,-0.1776,-0.1761,-0.1764,-0.1755,-0.1753,-0.1784,-0.1759,-0.1761,-0.1763,-0.184,-0.185,-0.1858,0,0,0,0,0,0,-0.1601,-0.1642,-0.1656,-0.1698,-0.1725,-0.1735,-0.1761,-0.1771,-0.1787,-0.1794,-0.1773,-0.1771,-0.1796,-0.1776,-0.1766,-0.1795,-0.1759,-0.1761,-0.1818,-0.1827,-0.1834,-0.1829,-0.1736,0,0,0,0,0,-0.1614,-0.1649,-0.168,-0.1715,-0.1735,-0.1754,-0.1773,-0.1786,-0.1797,-0.1806,-0.1807,-0.1803,-0.1798,-0.1803,-0.1796,-0.1814,-0.178,-0.1832,-0.1839,-0.1846,-0.184,-0.1818,-0.1823,-0.1771,-0.1771,-0.1771,0,0,-0.1617,-0.1647,-0.1666,-0.1717,-0.1739,-0.1773,-0.1767,-0.1807,-0.1832,-0.1801,-0.184,-0.1832,-0.1808,-0.1827,-0.1836,-0.1819,-0.1844,-0.1848,-0.1854,-0.1844,-0.1821,-0.1826,-0.183,-0.1772,-0.1772,-0.1771,0,0,-0.163,-0.1677,-0.1706,-0.1743,-0.1791,-0.1805,-0.1826,-0.1859,-0.1875,-0.1906,-0.1887,-0.1899,-0.1901,-0.189,-0.1881,-0.1925,-0.1884,-0.1929,-0.1965,-0.1946,-0.195,-0.1953,-0.1922,-0.1922,-0.1933,-0.1934,-0.1934,0,-0.1634,-0.1685,-0.1717,-0.1761,-0.1797,-0.1825,-0.1866,-0.1885,-0.1917,-0.1923,-0.193,-0.1932,-0.1928,-0.1929,-0.195,-0.1944,-0.1917,-0.1937,-0.1956,-0.1958,-0.196,-0.1927,-0.1926,-0.1938,-0.1937,-0.1937,-0.1937,0,-0.1662,-0.1721,-0.1746,-0.1811,-0.1849,-0.1896,-0.1931,-0.1964,-0.1989,-0.1995,-0.2017,-0.201,-0.2003,-0.2016,-0.1999,-0.2012,-0.1984,-0.1968,-0.1934,-0.197,-0.1933,-0.193,-0.1944,-0.1943,-0.1941,-0.194,0,0,-0.1626,-0.1743,-0.1757,-0.1803,-0.189,-0.1917,-0.1968,-0.2006,-0.2021,-0.2057,-0.2063,-0.2085,-0.2076,-0.2065,-0.2052,-0.2049,-0.2054,-0.2022,-0.2019,-0.1993,-0.2,-0.1859,-0.1842,-0.2042,-0.2042,-0.2042,-0.1972,0,-0.1642,-0.1725,-0.1786,-0.187,-0.1915,-0.1977,-0.2015,-0.2052,-0.2069,-0.2079,-0.2081,-0.2082,-0.2094,-0.2091,-0.2094,-0.2054,-0.2048,-0.2073,-0.1966,-0.1963,-0.1835,-0.1834,-0.2041,-0.1969,-0.1968,-0.1967,-0.1967,0,-0.1647,-0.1706,-0.1787,-0.19,-0.1927,-0.1979,-0.2039,-0.2079,-0.2096,-0.2107,-0.2113,-0.2096,-0.2099,-0.2099,-0.2066,-0.208,-0.2049,-0.2025,-0.2021,-0.1853,-0.1815,-0.1923,-0.1961,-0.1961,-0.1962,-0.1962,-0.1962,0,-0.1581,-0.1711,-0.1775,-0.1819,-0.1936,-0.1982,-0.204,-0.208,-0.2088,-0.2111,-0.2099,-0.2106,-0.2083,-0.207,-0.2027,-0.2046,-0.1968,-0.1981,-0.1826,-0.1815,-0.1929,-0.1926,-0.1951,-0.1951,-0.1951,-0.1952,-0.1952,0,-0.1564,-0.1623,-0.1756,-0.1791,-0.1846,-0.1956,-0.1993,-0.2041,-0.2077,-0.2062,-0.2103,-0.2062,-0.2074,-0.2024,-0.2011,-0.1889,-0.1952,-0.1816,-0.1781,-0.1966,-0.1969,-0.1926,-0.1924,-0.1949,-0.195,-0.195,-0.1951,0,-0.1474,-0.1573,-0.1642,-0.1776,-0.1813,-0.1847,-0.1948,-0.1959,-0.2027,-0.2001,-0.2004,-0.2006,-0.1943,-0.193,-0.1878,-0.1828,-0.1758,-0.1702,-0.1885,-0.1865,-0.1628,-0.1632,-0.1521,-0.1515,-0.151,-0.1506,-0.1503,0,-0.1433,-0.1463,-0.1586,-0.1611,-0.1677,-0.1748,-0.1781,-0.1894,-0.19,-0.1942,-0.1905,-0.1861,-0.1845,-0.1654,-0.1679,-0.1611,-0.1601,-0.1564,-0.1617,-0.1603,-0.1581,-0.1592,-0.1602,-0.1495,-0.1494,-0.1492,-0.1491,0,-0.1336,-0.1389,-0.1435,-0.1482,-0.1534,-0.1574,-0.1645,-0.1631,-0.1742,-0.1812,-0.174,-0.1684,-0.1592,-0.1541,-0.1479,-0.1449,-0.1593,-0.1514,-0.1525,-0.1574,-0.157,-0.1556,-0.1572,-0.1474,-0.1477,-0.1478,-0.1479,0,-0.1247,-0.1243,-0.1307,-0.1333,-0.1384,-0.139,-0.145,-0.1475,-0.1498,-0.1584,-0.1545,-0.1533,-0.1562,-0.1451,-0.1407,-0.1346,-0.134,-0.1325,-0.1346,-0.1365,-0.1345,-0.132,-0.1099,0,0,0,0,0,-0.1153,-0.114,-0.1157,-0.1178,-0.1225,-0.1256,-0.135,-0.1422,-0.1525,-0.1431,-0.1493,-0.1414,-0.1326,-0.132,-0.122,-0.1324,-0.134,-0.1204,-0.1336,-0.1381,-0.1401,-0.1392,0,0,0,0,0,0,-0.1089,-0.1102,-0.1107,-0.1043,-0.1027,-0.1066,-0.1119,-0.1203,-0.1173,-0.1281,-0.1231,-0.1317,-0.124,-0.1335,-0.1177,-0.1177,-0.1233,-0.1215,-0.1212,-0.137,-0.1388,-0.1404,-0.1401,0,0,0,0,0]},{"header":{"parameterUnit":"m.s-1","parameterCategory":2,"la1":30.2991,"la2":30.254,"lo1":-89.0895,"lo2":-89.0444,"dy":0.0017,"dx":0.0017,"nx":28,"ny":28,"refTime":"2025-03-18T03:00:00:Z","depth":"4","parameterNumber":3,"parameterNumberName":"V-component_of_CURRENTS"},"data":[0,0,0,0,0,0,0,0,0,0,0,0,0,0,0,0,0,0,0,0,0,0,0,0,0,0,0,0,0,0,0,0,0,0,0,0,0,0,0,0,0,0,0,0,0,0,0,0,0,0,0,0,0,0,0,0,0,0,-0.018,-0.0179,0,-0.011,-0.0109,-0.0108,-0.0079,-0.008,-0.008,-0.008,0.0012,0.0015,0.0017,0,0,0,0,0,0,0,0,0,0,0,0,0,-0.0228,-0.0228,-0.018,-0.0179,-0.0178,-0.011,-0.0109,-0.0108,-0.0079,-0.008,-0.008,-0.008,0.0011,0.0014,0.0018,0,0,0,0,0,0,0,0,0,0,0,0,0,-0.0187,-0.0228,-0.018,-0.0156,-0.0154,-0.011,-0.0109,-0.0108,-0.0079,-0.008,-0.008,-0.008,0.001,0.0014,0.0018,0.005,0,0,0.003,0.0032,0,0,0,0,0,0,0,0,-0.0189,-0.0185,-0.0161,-0.0158,-0.0155,-0.0105,-0.0092,-0.0054,-0.0079,-0.0106,-0.008,-0.008,-0.0025,-0.0018,-0.0003,0.0055,0.0059,0.0031,0.0033,0.0035,0.0036,0,0,0,0,0,0,0,-0.0192,-0.0187,-0.0151,-0.016,-0.0156,-0.0129,-0.0124,-0.0085,-0.0063,-0.0104,-0.0102,-0.0096,-0.0024,-0.0007,-0.0001,0.006,0.0031,0.0034,0.0037,0.0038,0.0156,0.0157,0,0,0,0,0,0,-0.0206,-0.019,-0.0153,-0.0149,-0.0175,-0.0128,-0.0123,-0.012,-0.0064,-0.0056,-0.0096,-0.0095,-0.0014,-0.0005,0.0003,0.0026,0.0035,0.0039,0.0041,0.0156,0.0157,0.0157,0,0,0,0,0,0,-0.0207,-0.0203,-0.0156,-0.0169,-0.0161,-0.0128,-0.0124,-0.0118,-0.0109,-0.0058,-0.005,-0.0094,-0.0014,-0.0003,0.0036,0.003,0.004,0.0044,0.0155,0.0156,0.0157,0.0084,0,0,0,0,0,0,-0.0209,-0.0204,-0.0209,-0.017,-0.0161,-0.0139,-0.0124,-0.0116,-0.0105,-0.0103,-0.0054,-0.0045,-0.0013,0.003,0.004,0.0036,0.0047,0.0154,0.0155,0.0157,0.0085,0.0082,0.0079,0,0,0,0,0,-0.0211,-0.0218,-0.021,-0.0205,-0.0168,-0.0139,-0.0132,-0.0108,-0.0105,-0.0101,-0.0064,-0.0047,0.0046,0.0034,0.0046,0.0042,0.0153,0.0155,0.0157,0.0086,0.0083,0.008,0,0,0,0,0,0,-0.0241,-0.0214,-0.0205,-0.0203,-0.0178,-0.0135,-0.0131,-0.0114,-0.0082,-0.0084,-0.0037,-0.0026,0.0005,0.0042,0.0027,0.0084,0.0103,0.0107,0.0045,0.0042,0.004,0.0015,0.0051,0,0,0,0,0,-0.0251,-0.0252,-0.0215,-0.0217,-0.0205,-0.017,-0.0157,-0.0141,-0.0107,-0.0094,-0.0057,-0.0014,0.0024,0.0045,0.0086,0.0118,0.0131,0.0126,0.0123,0.012,0.0111,0.0128,0.0125,0.0163,0.0163,0.0163,0,0,-0.0264,-0.025,-0.025,-0.0224,-0.0202,-0.0188,-0.0163,-0.0149,-0.014,-0.0088,-0.0064,-0.0025,0.0031,0.0064,0.0081,0.0091,0.0116,0.0122,0.0119,0.0111,0.0129,0.0125,0.0121,0.0164,0.0164,0.0163,0,0,-0.0289,-0.0277,-0.0284,-0.0262,-0.0236,-0.021,-0.021,-0.017,-0.0156,-0.0125,-0.0087,-0.0054,0.0011,0.0044,0.0071,0.008,0.0098,0.0098,0.0063,0.0079,0.0075,0.0072,0.007,0.0067,0.0098,0.0097,0.0097,0,-0.031,-0.0312,-0.0281,-0.0276,-0.0265,-0.0225,-0.0225,-0.0199,-0.0152,-0.0145,-0.0127,-0.0048,-0.0001,0.0031,0.0038,0.007,0.0077,0.0064,0.0071,0.0069,0.0067,0.0066,0.0063,0.0094,0.0094,0.0095,0.0095,0,-0.0333,-0.0334,-0.0335,-0.0318,-0.0297,-0.0294,-0.0252,-0.0238,-0.0216,-0.019,-0.016,-0.0097,-0.0054,-0.0029,0.001,0.0023,0.0031,0.0059,0.0068,0.0057,0.0058,0.0057,0.0089,0.0091,0.0091,0.0092,0,0,-0.0389,-0.036,-0.0364,-0.0369,-0.0324,-0.0318,-0.0296,-0.0275,-0.0283,-0.0231,-0.0238,-0.0158,-0.0133,-0.01,-0.0051,-0.0029,-0.0034,0.0006,0.0008,-0.0017,-0.0016,0.0001,0.0001,-0.0009,-0.0009,-0.0009,-0.0015,0,-0.0424,-0.0444,-0.0404,-0.0418,-0.0426,-0.0375,-0.0364,-0.0337,-0.031,-0.0304,-0.0246,-0.0224,-0.0157,-0.0145,-0.0112,-0.0056,-0.0038,-0.0036,0.0018,0.0019,0.0018,0.0001,-0.001,-0.0016,-0.0016,-0.0016,-0.0016,0,-0.0462,-0.0477,-0.0502,-0.0491,-0.0488,-0.0485,-0.0478,-0.0454,-0.042,-0.04,-0.0365,-0.032,-0.0275,-0.022,-0.0143,-0.0147,-0.0087,-0.0042,-0.0041,-0.0002,0.0034,0.0006,-0.0018,-0.0018,-0.0018,-0.0018,-0.0018,0,-0.0543,-0.0542,-0.0575,-0.0569,-0.0547,-0.0554,-0.0536,-0.0501,-0.0504,-0.0466,-0.0472,-0.0407,-0.0385,-0.0304,-0.0195,-0.0174,-0.0123,-0.0081,-0.0014,-0.0013,0.0005,0.0009,-0.0032,-0.0032,-0.0032,-0.0032,-0.0032,0,-0.0596,-0.0624,-0.0627,-0.0648,-0.0701,-0.0637,-0.0682,-0.0644,-0.0621,-0.0635,-0.0533,-0.0524,-0.0404,-0.0349,-0.0243,-0.0142,-0.0158,-0.0032,-0.0013,-0.0025,-0.0025,0.0003,0.0007,-0.0032,-0.0032,-0.0032,-0.0032,0,-0.0664,-0.0665,-0.0713,-0.0725,-0.0743,-0.0775,-0.0787,-0.0803,-0.0755,-0.0773,-0.0764,-0.0643,-0.0538,-0.0425,-0.0299,-0.0212,-0.0112,-0.0067,-0.0118,-0.01,-0.0004,-0.0003,-0.0004,-0.0004,-0.0003,-0.0003,-0.0003,0,-0.0693,-0.073,-0.0794,-0.0838,-0.0849,-0.0899,-0.0927,-0.0891,-0.0898,-0.0834,-0.0839,-0.0738,-0.0648,-0.0463,-0.0323,-0.0153,-0.0103,-0.0075,-0.0007,-0.002,-0.0001,-0.0001,-0.0001,-0.0002,-0.0002,-0.0002,-0.0002,0,-0.0751,-0.0781,-0.0822,-0.0922,-0.0978,-0.1033,-0.1061,-0.1083,-0.1022,-0.1016,-0.0894,-0.0758,-0.0637,-0.0452,-0.0329,-0.0193,-0.011,-0.0069,-0.0068,-0.0003,-0.0017,0.0002,0.0001,-0.0,-0.0,-0.0,-0.0001,0,-0.0793,-0.0842,-0.0903,-0.0979,-0.106,-0.1098,-0.1122,-0.1096,-0.109,-0.1003,-0.0975,-0.0788,-0.0699,-0.0473,-0.0355,-0.023,-0.0171,-0.0126,-0.012,-0.0121,-0.0133,-0.0165,-0.019,0,0,0,0,0,-0.0822,-0.0868,-0.0945,-0.1025,-0.1098,-0.1131,-0.1167,-0.1165,-0.1151,-0.1072,-0.1013,-0.0877,-0.0632,-0.0508,-0.0376,-0.0346,-0.0167,-0.0189,-0.0118,0.0009,0.0007,0.0017,0,0,0,0,0,0,-0.0841,-0.0916,-0.0944,-0.103,-0.1083,-0.115,-0.1163,-0.1149,-0.1089,-0.1053,-0.0912,-0.0856,-0.0614,-0.0714,-0.0377,-0.0338,-0.0275,-0.0082,-0.0079,0.001,0.0008,0.0007,0.0016,0,0,0,0,0]}]]